EN

Hourly Weather Ludwiniec

Today, 18 May, Tuesday

Time Temperature Precipitation Wind Pressure Humidity
00:00 +12°C° 0.6 mm 1 mps 744 mmHg 91%
01:00 +12°C° 0.6 mm 1 mps 744 mmHg 92%
02:00 +12°C° 1.1 mm 1 mps 744 mmHg 93%
03:00 +11°C° 1.1 mm 1 mps 744 mmHg 94%
04:00 +10°C° 1.1 mm 2 mps 744 mmHg 95%
05:00 +12°C° 0.9 mm 2 mps 744 mmHg 93%
06:00 +11°C° 0.9 mm 3 mps 745 mmHg 92%
07:00 +12°C° 0.9 mm 3 mps 745 mmHg 90%
08:00 +12°C° 0.4 mm 4 mps 745 mmHg 86%
09:00 +13°C° 0.4 mm 4 mps 745 mmHg 82%
10:00 +14°C° 0.4 mm 4 mps 745 mmHg 78%
11:00 +15°C° 0.6 mm 4 mps 745 mmHg 76%
12:00 +15°C° 0.6 mm 4 mps 745 mmHg 74%
13:00 +15°C° 0.6 mm 5 mps 746 mmHg 72%
14:00 +15°C° 0.8 mm 5 mps 746 mmHg 75%
15:00 +15°C° 0.8 mm 4 mps 746 mmHg 78%
16:00 +14°C° 0.8 mm 4 mps 746 mmHg 81%
17:00 +14°C° 0.7 mm 4 mps 746 mmHg 83%
18:00 +13°C° 0.7 mm 4 mps 746 mmHg 86%
19:00 +12°C° 0.7 mm 3 mps 747 mmHg 88%
20:00 +11°C° 0.1 mm 3 mps 747 mmHg 90%
21:00 +10°C° 0.1 mm 3 mps 747 mmHg 93%
22:00 +9°C° 0.1 mm 3 mps 747 mmHg 95%
23:00 +9°C° 0 mm 3 mps 747 mmHg 95%

Tomorrow, 19 May, Wednesday

Time Temperature Precipitation Wind Pressure Humidity
00:00 +8°C° 0 mm 3 mps 747 mmHg 96%
01:00 +8°C° 0 mm 3 mps 747 mmHg 97%
02:00 +7°C° 0 mm 3 mps 748 mmHg 97%
03:00 +7°C° 0 mm 3 mps 748 mmHg 97%
04:00 +5°C° 0 mm 3 mps 748 mmHg 97%
05:00 +8°C° 0 mm 3 mps 748 mmHg 93%
06:00 +9°C° 0 mm 3 mps 749 mmHg 89%
07:00 +10°C° 0 mm 4 mps 749 mmHg 85%
08:00 +11°C° 0 mm 4 mps 749 mmHg 79%
09:00 +13°C° 0 mm 4 mps 749 mmHg 73%
10:00 +14°C° 0 mm 4 mps 749 mmHg 67%
11:00 +14°C° 0.3 mm 4 mps 749 mmHg 67%
12:00 +14°C° 0.3 mm 4 mps 749 mmHg 68%
13:00 +14°C° 0.3 mm 4 mps 749 mmHg 68%
14:00 +14°C° 0.4 mm 4 mps 749 mmHg 70%
15:00 +14°C° 0.4 mm 5 mps 749 mmHg 72%
16:00 +14°C° 0.4 mm 5 mps 750 mmHg 74%
17:00 +13°C° 0.4 mm 4 mps 750 mmHg 78%
18:00 +12°C° 0.4 mm 4 mps 750 mmHg 82%
19:00 +11°C° 0.4 mm 3 mps 750 mmHg 85%
20:00 +10°C° 0 mm 3 mps 751 mmHg 86%
21:00 +9°C° 0 mm 3 mps 751 mmHg 87%
22:00 +8°C° 0 mm 3 mps 751 mmHg 88%
23:00 +7°C° 0 mm 3 mps 751 mmHg 88%

Day after tomorrow, 20 May, Thursday

Time Temperature Precipitation Wind Pressure Humidity
00:00 +7°C° 0 mm 3 mps 751 mmHg 88%
01:00 +5°C° 0 mm 3 mps 752 mmHg 88%
02:00 +4°C° 0 mm 3 mps 752 mmHg 89%
03:00 +4°C° 0 mm 3 mps 752 mmHg 89%
04:00 +4°C° 0 mm 2 mps 752 mmHg 89%
05:00 +6°C° 0 mm 2 mps 753 mmHg 86%
06:00 +8°C° 0 mm 2 mps 753 mmHg 82%
07:00 +10°C° 0 mm 2 mps 753 mmHg 79%
08:00 +11°C° 0.1 mm 3 mps 753 mmHg 74%
09:00 +13°C° 0.1 mm 3 mps 753 mmHg 70%
10:00 +14°C° 0.1 mm 3 mps 753 mmHg 66%
11:00 +14°C° 0.4 mm 4 mps 753 mmHg 69%
12:00 +14°C° 0.4 mm 4 mps 753 mmHg 72%
13:00 +13°C° 0.4 mm 5 mps 753 mmHg 75%
14:00 +13°C° 0.4 mm 5 mps 753 mmHg 75%
15:00 +13°C° 0.4 mm 5 mps 753 mmHg 76%
16:00 +13°C° 0.4 mm 5 mps 753 mmHg 76%
17:00 +12°C° 0.2 mm 5 mps 754 mmHg 77%
18:00 +11°C° 0.2 mm 4 mps 754 mmHg 78%
19:00 +10°C° 0.2 mm 4 mps 754 mmHg 80%
20:00 +9°C° 0 mm 3 mps 754 mmHg 83%
21:00 +8°C° 0 mm 3 mps 754 mmHg 86%
22:00 +5°C° 0 mm 3 mps 754 mmHg 89%
23:00 +5°C° 0 mm 3 mps 755 mmHg 89%

21 May, Friday

Time Temperature Precipitation Wind Pressure Humidity
00:00 +4°C° 0 mm 3 mps 755 mmHg 90%
01:00 +4°C° 0 mm 3 mps 755 mmHg 91%
02:00 +3°C° 0 mm 3 mps 755 mmHg 92%
03:00 +3°C° 0 mm 3 mps 755 mmHg 92%
04:00 +3°C° 0 mm 3 mps 754 mmHg 93%
05:00 +4°C° 0 mm 3 mps 754 mmHg 89%
06:00 +7°C° 0 mm 3 mps 754 mmHg 85%
07:00 +7°C° 0 mm 4 mps 754 mmHg 82%
08:00 +10°C° 0 mm 4 mps 754 mmHg 74%
09:00 +10°C° 0 mm 5 mps 754 mmHg 66%
10:00 +12°C° 0 mm 5 mps 754 mmHg 58%
11:00 +13°C° 0 mm 5 mps 753 mmHg 56%
12:00 +14°C° 0 mm 5 mps 753 mmHg 54%
13:00 +14°C° 0 mm 5 mps 753 mmHg 51%
14:00 +14°C° 0 mm 4 mps 752 mmHg 53%
15:00 +15°C° 0 mm 4 mps 752 mmHg 55%
16:00 +15°C° 0 mm 4 mps 752 mmHg 56%
17:00 +14°C° 0 mm 3 mps 751 mmHg 63%
18:00 +13°C° 0 mm 3 mps 751 mmHg 69%
19:00 +13°C° 0 mm 2 mps 751 mmHg 75%
20:00 +11°C° 0 mm 3 mps 750 mmHg 77%
21:00 +11°C° 0 mm 3 mps 750 mmHg 78%
22:00 +11°C° 0 mm 3 mps 750 mmHg 80%
23:00 +10°C° 0.1 mm 3 mps 750 mmHg 82%

22 May, Saturday

Time Temperature Precipitation Wind Pressure Humidity
00:00 +10°C° 0.1 mm 3 mps 749 mmHg 85%
01:00 +10°C° 0.1 mm 3 mps 749 mmHg 87%
02:00 +10°C° 0 mm 3 mps 748 mmHg 87%
03:00 +9°C° 0 mm 3 mps 748 mmHg 88%
04:00 +8°C° 0 mm 4 mps 747 mmHg 88%
05:00 +10°C° 0 mm 4 mps 747 mmHg 84%
06:00 +10°C° 0 mm 5 mps 747 mmHg 81%
07:00 +12°C° 0 mm 5 mps 746 mmHg 77%
08:00 +13°C° 0 mm 5 mps 746 mmHg 77%
09:00 +13°C° 0 mm 5 mps 747 mmHg 77%
10:00 +13°C° 0 mm 5 mps 747 mmHg 76%
11:00 +14°C° 0.1 mm 5 mps 747 mmHg 74%
12:00 +15°C° 0.1 mm 5 mps 747 mmHg 72%
13:00 +16°C° 0.1 mm 5 mps 747 mmHg 70%
14:00 +15°C° 0.6 mm 5 mps 747 mmHg 73%
15:00 +15°C° 0.6 mm 5 mps 747 mmHg 76%
16:00 +14°C° 0.6 mm 4 mps 747 mmHg 79%
17:00 +13°C° 0.3 mm 4 mps 747 mmHg 81%
18:00 +12°C° 0.3 mm 3 mps 747 mmHg 82%
19:00 +12°C° 0.3 mm 3 mps 747 mmHg 83%
20:00 +10°C° 0 mm 3 mps 747 mmHg 84%
21:00 +9°C° 0 mm 3 mps 748 mmHg 85%
22:00 +8°C° 0 mm 3 mps 748 mmHg 87%
23:00 +8°C° 0 mm 3 mps 748 mmHg 87%

23 May, Sunday

Time Temperature Precipitation Wind Pressure Humidity
00:00 +7°C° 0 mm 3 mps 748 mmHg 86%
01:00 +7°C° 0 mm 3 mps 748 mmHg 86%
02:00 +5°C° 0 mm 3 mps 748 mmHg 88%
03:00 +5°C° 0 mm 3 mps 748 mmHg 89%
04:00 +5°C° 0 mm 3 mps 748 mmHg 90%
05:00 +7°C° 0 mm 3 mps 748 mmHg 85%
06:00 +8°C° 0 mm 4 mps 748 mmHg 81%
07:00 +11°C° 0 mm 4 mps 748 mmHg 77%
08:00 +12°C° 0 mm 4 mps 748 mmHg 72%
09:00 +14°C° 0 mm 5 mps 748 mmHg 67%
10:00 +15°C° 0 mm 5 mps 749 mmHg 62%
11:00 +15°C° 0.1 mm 5 mps 749 mmHg 62%
12:00 +15°C° 0.1 mm 5 mps 749 mmHg 63%
13:00 +15°C° 0.1 mm 5 mps 749 mmHg 64%
14:00 +15°C° 0.1 mm 5 mps 749 mmHg 64%
15:00 +15°C° 0.1 mm 5 mps 749 mmHg 64%
16:00 +15°C° 0.1 mm 4 mps 749 mmHg 63%
17:00 +14°C° 0 mm 4 mps 750 mmHg 68%
18:00 +13°C° 0 mm 4 mps 750 mmHg 73%
19:00 +12°C° 0 mm 3 mps 750 mmHg 77%
20:00 +11°C° 0 mm 3 mps 751 mmHg 81%
21:00 +10°C° 0 mm 3 mps 751 mmHg 84%
22:00 +8°C° 0 mm 3 mps 751 mmHg 87%
23:00 +8°C° 0 mm 3 mps 752 mmHg 89%
Show more